This is the latest recevied weather packets stored in our database for station/object K1LBG. If no packets are shown the sender has not sent any weather packets the latest 10 day(s).
| Time | Temp. | Humidity | Pressure | Rain* | Wind** | Luminosity | Snow |
|---|---|---|---|---|---|---|---|
| 1777889489 | 5.56° C | 75% | 1011.3 hPa | 0 mm | - | - | - |
| 1777888001 | 4.44° C | 80% | 1011.1 hPa | 0 mm | - | - | - |
| 1777886799 | 5° C | 80% | 1011 hPa | 0 mm | - | - | - |
| 1777883533 | 5.56° C | 79% | 1010.8 hPa | 0 mm | - | - | - |
| 1777882301 | 6.11° C | 77% | 1010.8 hPa | 0 mm | - | - | - |
| 1777881680 | 6.11° C | 75% | 1010.9 hPa | 0 mm | - | - | - |
| 1777881406 | 6.11° C | 75% | 1010.9 hPa | 0 mm | - | - | - |
| 1777880781 | 6.11° C | 74% | 1010.9 hPa | 0 mm | - | - | - |
| 1777880510 | 6.11° C | 73% | 1010.9 hPa | 0 mm | - | - | - |
| 1777878418 | 6.11° C | 70% | 1010.7 hPa | 0 mm | - | - | - |
| 1777877789 | 6.11° C | 70% | 1010.7 hPa | 0 mm | - | - | - |
| 1777874194 | 6.11° C | 65% | 1010.7 hPa | 0 mm | - | - | - |
| 1777873010 | 5.56° C | 70% | 1010.8 hPa | 0 mm | - | - | - |
| 1777872700 | 5° C | 69% | 1010.8 hPa | 0 mm | - | - | - |
| 1777871797 | 4.44° C | 74% | 1010.7 hPa | 0 mm | - | - | - |
| 1777870333 | 4.44° C | 69% | 1010.8 hPa | 0 mm | - | - | - |
| 1777867880 | 3.89° C | 69% | 1010.8 hPa | 0 mm | - | - | - |
| 1777867602 | 3.89° C | 71% | 1010.6 hPa | 0 mm | - | - | - |
| 1777867291 | 3.89° C | 72% | 1010.5 hPa | 0 mm | - | - | - |
| 1777865498 | 3.33° C | 74% | 1010.4 hPa | 0 mm | - | - | - |
| 1777863989 | 3.89° C | 75% | 1010.4 hPa | 0 mm | - | - | - |
| 1777863389 | 3.89° C | 73% | 1010.2 hPa | 0 mm | - | - | - |
| 1777862481 | 3.89° C | 70% | 1010.2 hPa | 0 mm | - | - | - |
| 1777859783 | 5° C | 68% | 1010.1 hPa | 0 mm | - | - | - |
| 1777858594 | 5.56° C | 64% | 1010 hPa | 0 mm | - | - | - |
* Rain latest hour (hover to see other rain measurements)
** Current wind speed in m/s (hover to see current wind gust speed)